Weather in Balta

Ukraine / Odesa District     47°56′24″N   29°37′19″E
temp.,
°C
wind,
m/s
gust,
m/s
humid.,
%
clouds,
%
prec.,
mm/h
press.,
hPa
HPBL,
m
20 april, tue
tue2000:00+7ene2576100 0.0 1013122
03:00+5ne358470 0.0 1012111
06:00+4nne3583100 0.0 101186
09:00+9n476797 0.0 1010469
12:00+12n5653100 0.0 10091747
15:00+12nnw5652100 0.3 10091572
18:00+12nw45535 0.1 10091325
21:00+8wnw336839 0.1 101030
21 april, wed
wed2100:00+7w22765 0.0 101119
03:00+6w2279100 0.0 101129
06:00+5w2284100 0.0 101218
09:00+9w357184 0.0 1013375
12:00+13w455531 0.3 10131359
15:00+15w5650100 1.6 10131763
18:00+13w475783 0.9 1014789
21:00+10sw227097 1.1 101531
22 april, thu
thu2200:00+9sw33735 0.0 101631
03:00+8ssw34755 0.0 101651
06:00+7sw33795 0.0 101634
09:00+12sw236467 0.0 1017293
12:00+16sw45485 0.0 10171496
15:00+18sw554062 0.0 10162399
18:00+16ssw3650100 0.0 1016423
21:00+14s345747 0.0 101662
23 april, fri
fri2300:00+12s496720 0.0 1016183
03:00+9ssw410793 0.1 1016177
06:00+8s49850 0.0 1016155
09:00+13ssw696543 0.0 1015413
12:00+17ssw785276 0.6 10151563
15:00+14nw10966100 1.5 1014863
18:00+5nnw71189100 5.3 1019774
21:00+6n3784100 7.3 1020564
24 april, sat
sat2400:00+5wsw34895 0.0 102094
03:00+4w48910 0.0 1020231
06:00+3wnw613855 0.0 1021409
09:00+5nw813550 0.0 10231208
12:00+8nw811393 0.0 10231753
15:00+10nw793835 0.0 10221976
18:00+10wnw474271 0.0 10222052
21:00+6ssw345856 0.0 102241